Waarnemingen

Advertentie
Mijn weer
Westdorpe aws, Nederland (6319): temperatuur & dauwpunt: 12.02.2019 01:00:00 - 18.02.2019 01:00:00 (CET)Westdorpe aws, Nederland (6319): temperatuur 5cm: 12.02.2019 01:00:00 - 18.02.2019 01:00:00 (CET)Westdorpe aws, Nederland (6319): windsnelheid & windstoten: 12.02.2019 01:00:00 - 18.02.2019 01:00:00 (CET)Westdorpe aws, Nederland (6319): windrichting: 12.02.2019 01:00:00 - 18.02.2019 01:00:00 (CET)Westdorpe aws, Nederland (6319): luchtdruk: 12.02.2019 01:00:00 - 18.02.2019 01:00:00 (CET)Westdorpe aws, Nederland (6319): zicht: 12.02.2019 01:00:00 - 18.02.2019 01:00:00 (CET)Westdorpe aws, Nederland (6319): neerslag: 12.02.2019 01:00:00 - 18.02.2019 01:00:00 (CET)
Datum & Tijd tt [°C] td [°C] tt 5cm [°C] ff [km/u] ff [kn] fx [km/u] fx [kn] dd ppp [hPa] vv [km] rr [mm]
18.02.2019 01:00:00 6,2 2,3 2,1 11 6 14 8 ZO 1018,8 36 0,0
18.02.2019 00:00:00 6,9 2,6 2,2 7 4 14 8 ZZO 1018,8 33 0,0
17.02.2019 23:00:00 6,9 3,0 2,6 7 4 11 6 ZZO 1018,9 35 0,0
17.02.2019 22:00:00 8,5 3,2 4,9 7 4 18 10 ZZO 1019,1 45 0,0
17.02.2019 21:00:00 10,2 3,5 7,3 11 6 22 12 Z 1018,9 45 0,0
17.02.2019 20:00:00 11,0 3,2 7,5 14 8 18 10 Z 1018,8 46 0,0
17.02.2019 19:00:00 11,1 2,9 7,7 7 4 18 10 Z 1018,5 47 0,0
17.02.2019 18:00:00 12,6 3,1 9,6 11 6 29 16 Z 1018,0 45 0,0
17.02.2019 17:00:00 13,9 2,8 11,5 22 12 32 18 Z 1017,8 42 0,0
17.02.2019 16:00:00 14,9 3,4 13,3 18 10 25 14 Z 1017,6 30 0,0
17.02.2019 15:00:00 15,2 3,6 14,2 14 8 32 18 Z 1017,8 25 0,0
17.02.2019 14:00:00 14,7 2,9 14,0 18 10 32 18 Z 1018,4 29 0,0
17.02.2019 13:00:00 13,5 3,1 13,1 14 8 25 14 Z 1018,8 29 0,0
17.02.2019 12:00:00 11,7 3,6 11,6 11 6 22 12 Z 1019,6 17 0,0
17.02.2019 11:00:00 9,8 3,1 9,1 11 6 18 10 Z 1019,8 17 0,0
17.02.2019 10:00:00 7,3 1,8 6,2 7 4 14 8 ZZO 1020,2 19 0,0
17.02.2019 09:00:00 4,8 1,2 1,7 7 4 14 8 ZZO 1020,5 14 0,0
17.02.2019 08:00:00 4,0 1,4 0,4 7 4 14 8 ZO 1020,6 13 0,0
17.02.2019 07:00:00 4,4 1,7 1,3 11 6 14 8 ZZO 1020,8 12 0,0
17.02.2019 06:00:00 4,1 1,5 1,4 11 6 14 8 ZZO 1021,2 11 0,0
17.02.2019 05:00:00 4,1 1,5 1,4 11 6 18 10 ZZO 1021,6 13 0,0
17.02.2019 04:00:00 3,5 1,4 0,3 7 4 14 8 ZO 1022,0 12 0,0
17.02.2019 03:00:00 3,3 1,6 -0,1 7 4 11 6 ZO 1022,7 10 0,0
17.02.2019 02:00:00 4,2 2,1 0,6 11 6 18 10 ZO 1023,1 11 0,0
17.02.2019 01:00:00 5,7 3,0 2,0 11 6 18 10 ZZO 1023,5 13 0,0
17.02.2019 00:00:00 4,0 2,5 1,5 7 4 14 8 ZZO 1023,9 10 0,0
16.02.2019 23:00:00 6,0 3,7 2,3 7 4 14 8 ZZO 1024,2 12 0,0
16.02.2019 22:00:00 4,6 3,4 0,9 7 4 7 4 ZZO 1024,4 10 0,0
16.02.2019 21:00:00 6,4 4,0 2,0 7 4 11 6 Z 1024,3 13 0,0
16.02.2019 20:00:00 5,8 4,2 2,1 4 2 7 4 ZW 1024,8 10 0,0
16.02.2019 19:00:00 9,9 4,8 3,8 4 2 7 4 Z 1024,7 21 0,0
16.02.2019 18:00:00 11,5 5,4 6,7 4 2 14 8 ZZO 1024,5 21 0,0
16.02.2019 17:00:00 12,9 6,9 11,0 11 6 14 8 Z 1024,7 21 0,0
16.02.2019 16:00:00 13,6 6,7 12,8 11 6 22 12 WZW 1025,0 20 0,0
16.02.2019 15:00:00 13,6 7,1 12,7 14 8 29 16 WZW 1025,3 18 0,0
16.02.2019 14:00:00 12,9 6,8 13,2 14 8 18 10 WZW 1025,4 18 0,0
16.02.2019 13:00:00 12,5 6,2 12,7 11 6 22 12 ZZW 1025,7 16 0,0
16.02.2019 12:00:00 11,0 5,8 11,7 14 8 18 10 WZW 1026,1 19 0,0
16.02.2019 11:00:00 9,1 4,1 9,3 7 4 11 6 Z 1026,0 17 0,0
16.02.2019 10:00:00 6,9 3,2 6,1 11 6 14 8 Z 1026,0 14 0,0
16.02.2019 09:00:00 4,9 2,4 2,9 7 4 18 10 Z 1025,8 11 0,0
16.02.2019 08:00:00 4,7 1,7 2,6 14 8 22 12 Z 1025,3 15 0,0
16.02.2019 07:00:00 4,7 1,8 2,6 14 8 22 12 Z 1024,9 17 0,0
16.02.2019 06:00:00 5,0 1,8 2,8 11 6 22 12 Z 1024,9 18 0,0
16.02.2019 05:00:00 5,6 2,1 3,4 11 6 22 12 Z 1024,7 22 0,0
16.02.2019 04:00:00 6,1 2,2 3,7 14 8 22 12 Z 1024,8 26 0,0
16.02.2019 03:00:00 6,3 2,3 3,1 11 6 18 10 Z 1025,3 24 0,0
16.02.2019 02:00:00 6,2 2,0 2,6 7 4 18 10 Z 1025,8 28 0,0
16.02.2019 01:00:00 7,7 2,3 5,2 11 6 25 14 Z 1025,9 30 0,0
16.02.2019 00:00:00 8,2 1,9 5,5 14 8 22 12 Z 1025,9 40 0,0
15.02.2019 23:00:00 9,4 1,8 6,4 14 8 22 12 Z 1026,0 45 0,0
15.02.2019 22:00:00 9,8 1,9 6,4 11 6 18 10 Z 1026,3 37 0,0
15.02.2019 21:00:00 10,8 2,3 6,7 11 6 18 10 Z 1026,4 38 0,0
15.02.2019 20:00:00 9,6 2,8 3,2 7 4 11 6 ZZO 1026,7 47 0,0
15.02.2019 19:00:00 11,0 3,0 4,0 4 2 7 4 ZZO 1027,1 43 0,0
15.02.2019 18:00:00 13,8 3,2 7,7 4 2 11 6 ZO 1027,0 36 0,0
15.02.2019 17:00:00 15,3 4,3 13,0 7 4 14 8 ZZO 1027,2 31 0,0
15.02.2019 16:00:00 15,6 4,6 14,6 7 4 22 12 Z 1027,9 35 0,0
15.02.2019 15:00:00 15,1 5,0 14,7 14 8 18 10 Z 1028,4 33 0,0
15.02.2019 14:00:00 14,5 2,9 14,6 11 6 18 10 Z 1029,1 35 0,0
15.02.2019 13:00:00 13,3 2,1 13,7 14 8 22 12 Z 1029,7 40 0,0
15.02.2019 12:00:00 11,1 2,3 11,5 11 6 18 10 Z 1030,4 29 0,0
15.02.2019 11:00:00 8,7 1,2 8,3 7 4 14 8 Z 1030,9 34 0,0
15.02.2019 10:00:00 5,6 0,2 4,6 7 4 14 8 ZO 1030,9 37 0,0
15.02.2019 09:00:00 3,0 -1,1 0,0 7 4 11 6 ZO 1031,0 26 0,0
15.02.2019 08:00:00 -0,1 -1,7 -2,7 7 4 7 4 OZO 1031,0 31 0,0
15.02.2019 07:00:00 0,7 -1,8 -2,9 7 4 7 4 ZO 1030,9 33 0,0
15.02.2019 06:00:00 1,7 -1,3 -2,3 7 4 11 6 ZO 1031,3 39 0,0
15.02.2019 05:00:00 0,6 -1,1 -2,5 7 4 11 6 OZO 1031,2 32 0,0
15.02.2019 04:00:00 0,8 -0,6 -2,4 4 2 7 4 ZO 1031,4 22 0,0
15.02.2019 03:00:00 1,3 -0,6 -1,9 7 4 7 4 OZO 1031,9 30 0,0
15.02.2019 02:00:00 3,4 0,2 -2,6 7 4 11 6 ZZO 1032,3 31 0,0
15.02.2019 01:00:00 1,0 -0,1 -2,1 4 2 11 6 ZO 1032,5 24 0,0
15.02.2019 00:00:00 3,1 0,0 -1,3 7 4 11 6 Z 1032,5 36 0,0
14.02.2019 23:00:00 2,8 0,6 -1,4 4 2 4 2 ZO 1032,3 28 0,0
14.02.2019 22:00:00 2,6 0,8 -1,2 4 2 7 4 ZO 1032,5 33 0,0
14.02.2019 21:00:00 3,5 1,2 -0,7 7 4 7 4 OZO 1032,6 30 0,0
14.02.2019 20:00:00 4,5 1,6 -0,1 7 4 7 4 OZO 1032,7 41 0,0
14.02.2019 19:00:00 6,2 3,4 2,3 4 2 4 2 O 1032,9 33 0,0
14.02.2019 18:00:00 9,4 2,9 5,3 4 2 7 4 OZO 1032,7 30 0,0
14.02.2019 17:00:00 12,2 2,8 10,6 7 4 14 8 ZO 1033,0 32 0,0
14.02.2019 16:00:00 13,3 2,6 12,6 7 4 14 8 OZO 1033,5 33 0,0
14.02.2019 15:00:00 12,7 4,7 12,7 7 4 14 8 O 1033,8 27 0,0
14.02.2019 14:00:00 11,9 4,6 12,5 7 4 14 8 ZZO 1034,6 27 0,0
14.02.2019 13:00:00 10,3 3,1 10,9 7 4 14 8 ZZO 1035,1 29 0,0
14.02.2019 12:00:00 8,6 2,9 9,1 7 4 14 8 Z 1035,6 24 0,0
14.02.2019 11:00:00 6,2 1,5 6,0 11 6 14 8 ZO 1035,7 26 0,0
14.02.2019 10:00:00 3,8 0,6 3,2 7 4 14 8 ZZO 1035,4 15 0,0
14.02.2019 09:00:00 1,2 -0,8 0,1 11 6 14 8 ZO 1035,8 14 0,0
14.02.2019 08:00:00 -0,3 -1,0 -2,6 11 6 14 8 ZO 1035,4 8 0,0
14.02.2019 07:00:00 -0,2 -0,9 -2,6 4 2 11 6 NO 1035,1 6 0,0
14.02.2019 06:00:00 -0,4 -1,2 -2,1 7 4 11 6 ZO 1034,8 9 0,0
14.02.2019 05:00:00 1,3 -0,2 -0,7 4 2 11 6 Z 1034,5 13 0,0
14.02.2019 04:00:00 1,0 0,3 -0,9 7 4 11 6 ZZO 1034,7 9 0,0
14.02.2019 03:00:00 0,3 -0,3 -1,8 7 4 11 6 ZO 1034,9 7 0,0
14.02.2019 02:00:00 1,2 -0,6 -0,6 7 4 11 6 ZZO 1034,9 16 0,0
14.02.2019 01:00:00 1,1 -0,3 -0,9 4 2 11 6 ZO 1035,1 11 0,0
14.02.2019 00:00:00 2,5 0,6 0,8 4 2 14 8 ZZO 1035,1 15 0,0
13.02.2019 23:00:00 3,5 1,1 1,7 11 6 14 8 Z 1035,0 17 0,0
13.02.2019 22:00:00 3,9 1,3 2,1 7 4 18 10 Z 1035,3 18 0,0
13.02.2019 21:00:00 4,2 1,5 2,4 7 4 14 8 Z 1035,2 22 0,0
13.02.2019 20:00:00 4,6 1,6 2,8 7 4 14 8 Z 1035,5 24 0,0
13.02.2019 19:00:00 5,6 1,8 3,6 7 4 14 8 ZZO 1035,5 27 0,0
13.02.2019 18:00:00 6,2 2,7 4,5 11 6 18 10 ZZW 1035,0 28 0,0
13.02.2019 17:00:00 7,6 2,6 6,4 14 8 25 14 Z 1035,2 31 0,0
13.02.2019 16:00:00 8,2 2,6 7,8 18 10 25 14 Z 1035,2 27 0,0
13.02.2019 15:00:00 8,1 2,7 8,1 18 10 29 16 Z 1035,2 17 0,0
13.02.2019 14:00:00 8,0 2,7 8,2 18 10 25 14 Z 1035,5 20 0,0
13.02.2019 13:00:00 8,0 4,0 8,6 18 10 22 12 ZW 1036,3 20 0,0
13.02.2019 12:00:00 7,2 3,6 7,6 14 8 18 10 ZZW 1036,4 13 0,0
13.02.2019 11:00:00 6,0 2,7 6,1 14 8 18 10 ZW 1036,4 15 0,0
13.02.2019 10:00:00 4,9 2,3 4,1 11 6 18 10 ZZW 1036,4 11 0,0
13.02.2019 09:00:00 4,5 1,8 3,7 7 4 18 10 Z 1035,9 12 0,0
13.02.2019 08:00:00 4,4 1,8 3,5 14 8 18 10 Z 1035,7 14 0,0
13.02.2019 07:00:00 4,6 2,0 3,7 7 4 14 8 Z 1035,5 14 0,0
13.02.2019 06:00:00 4,8 2,2 3,8 11 6 18 10 Z 1035,4 13 0,0
13.02.2019 05:00:00 5,0 2,6 3,8 11 6 18 10 ZZW 1035,4 10 0,0
13.02.2019 04:00:00 4,9 2,5 3,6 11 6 18 10 Z 1035,6 11 0,0
13.02.2019 03:00:00 4,4 2,3 3,0 11 6 18 10 Z 1035,6 12 0,0
13.02.2019 02:00:00 3,9 1,9 2,3 11 6 14 8 Z 1035,7 12 0,0
13.02.2019 01:00:00 3,5 1,8 2,1 11 6 18 10 ZZW 1035,8 11 0,0
13.02.2019 00:00:00 4,2 2,0 2,5 11 6 22 12 Z 1035,8 18 0,0
12.02.2019 23:00:00 5,5 2,1 3,8 14 8 25 14 ZW 1035,4 37 0,0
12.02.2019 22:00:00 5,6 2,5 4,0 18 10 29 16 ZW 1035,0 28 0,0
12.02.2019 21:00:00 6,1 3,2 4,4 18 10 25 14 ZW 1035,1 27 0,0
12.02.2019 20:00:00 6,3 3,6 4,4 18 10 22 12 ZW 1035,1 32 0,0
12.02.2019 19:00:00 6,6 3,5 4,8 14 8 22 12 ZW 1034,9 34 0,0
12.02.2019 18:00:00 7,1 3,4 5,2 14 8 18 10 ZW 1034,5 32 0,0
12.02.2019 17:00:00 8,4 4,5 7,4 11 6 18 10 ZW 1034,5 35 0,0
12.02.2019 16:00:00 8,7 4,6 8,0 11 6 25 14 WZW 1034,4 39 0,0
12.02.2019 15:00:00 8,6 4,8 8,1 14 8 22 12 ZW 1034,2 28 0,0
12.02.2019 14:00:00 8,5 4,6 8,8 18 10 25 14 ZW 1034,5 26 0,0
12.02.2019 13:00:00 7,8 4,2 7,7 14 8 22 12 ZW 1034,6 21 0,0
12.02.2019 12:00:00 6,2 4,2 5,4 11 6 18 10 ZW 1035,0 14 0,0
12.02.2019 11:00:00 4,6 2,8 4,2 11 6 14 8 ZW 1034,8 11 0,0
12.02.2019 10:00:00 2,7 2,5 1,7 7 4 14 8 Z 1034,5 7 0,0
12.02.2019 09:00:00 1,6 1,5 0,2 7 4 11 6 ZW 1034,2 5 0,0
12.02.2019 08:00:00 1,8 1,4 0,2 7 4 14 8 ZZW 1033,7 10 0,0
12.02.2019 07:00:00 1,5 1,4 -0,1 7 4 11 6 ZW 1033,4 8 0,0
12.02.2019 06:00:00 1,5 1,3 -0,3 7 4 11 6 ZZW 1033,3 8 0,0
12.02.2019 05:00:00 1,3 1,2 -0,2 7 4 11 6 ZW 1033,5 7 0,0
12.02.2019 04:00:00 1,2 1,1 -0,5 11 6 11 6 ZW 1033,4 3,6 0,0
12.02.2019 03:00:00 0,9 0,8 -1,0 7 4 11 6 ZW 1033,7 3,9 0,0
12.02.2019 02:00:00 1,0 0,9 -0,8 11 6 11 6 ZW 1033,5 6 0,0
12.02.2019 01:00:00 1,1 0,9 -1,1 7 4 11 6 WZW 1033,1 9 0,0

tt = temperatuur
td = dauwpunt
tt 5cm = temperatuur 5cm
ff = windsnelheid
fx = windstoten
dd = windrichting
ppp = luchtdruk
vv = zicht
rr = neerslag

Weerstations in de omgeving